Погода в Абабкове

Россия / Нижегородская область     56°01′40″N   43°09′18″E
темп.,
°C
ветер,
м/с
пор.,
м/с
влажн.,
%
обл.,
%
осадки,
мм/ч
давл.,
гПа
погр.,
м
6 марта, сб
сб600:00−12сз359479 0.0 101274
03:00−15зсз339140 0.0 101427
06:00−15з23930 0.0 101422
09:00−13зюз35920 0.0 1016154
12:00−8з348917 0.0 1015434
15:00−7з358558 0.1 1014708
18:00−11зсз238985 0.0 101321
21:00−12з239488 0.1 101328
7 марта, вс
вс700:00−15зюз239458 0.0 101221
03:00−15ююз349529 0.0 101140
06:00−15ююз489773 0.0 1008133
09:00−10ююз7138787 0.0 1005493
12:00−7ююз91391100 0.1 10011005
15:00−5ююз81493100 0.9 9961090
18:00−5ююз71494100 1.3 992871
21:00−7зсз91591100 2.3 991738
8 марта, пн
пн800:00−10зюз7158267 0.1 992361
03:00−11зюз7158533 0.1 993397
06:00−11зюз6139463 0.0 993301
09:00−10зюз6128361 0.0 994486
12:00−7з71089100 0.1 995804
15:00−7зсз71089100 0.5 998876
18:00−9сз51094100 0.4 1001505
21:00−12сз479697 0.5 1005147
9 марта, вт
вт900:00−14сз369799 0.1 1008161
03:00−18сз359890 0.1 101084
06:00−20сз3410087 0.0 101259
09:00−19сз359682 0.1 1015204
12:00−15сз358774 0.0 1015470
15:00−13сз468687 0.1 1016722
18:00−17сз3494100 0.1 101765
21:00−21сз349897 0.1 102063
10 марта, ср
ср1000:00−23ссз3310095 0.0 102133
03:00−25ссз2310093 0.1 102227
06:00−27ссз2310070 0.0 102322
09:00−25ссз249754 0.0 1024172
12:00−19ссз348558 0.0 1025405
15:00−16сз348169 0.0 1024660
18:00−20с1295100 0.0 102420
21:00−24в0010085 0.0 102620